Regional Weather Roundup
Issued by NWS State College, PA

Home | Current Version | Previous Version | Graphics & Text | Print | Product List | Glossary Off
Versions: 1 2 3 4 5 6 7 8 9 10 11 12 13 14 15 16 17 18 19 20 21 22 23 24 25 26 27 28 29 30 31 32 33 34 35 36 37 38 39 40 41 42 43 44 45 46 47 48 49 50

000
ASUS41 KCTP 291803
RWRCTP

REGIONAL WEATHER ROUNDUP
NATIONAL WEATHER SERVICE STATE COLLEGE PA
200 PM EDT SUN MAY 29 2016

Note: "fair" indicates few or no clouds below 12,000 feet with no
significant weather and/or obstructions to visibility.

* = STATION THAT DOES NOT REPORT PRECIPITATION /E.G. RAIN...SNOW...ETC/
    THUNDER OR FOG.

PAZ002>004-007>009-013>016-020>023-029>032-291900-
WESTERN PENNSYLVANIA

CITY           SKY/WX    TMP DP  RH WIND       PRES   REMARKS
ERIE           CLOUDY    80  66  62 W7        30.06S
MEADVILLE      CLOUDY    76  67  73 S9        30.11S
FRANKLIN*      CLOUDY    79  66  65 SE8       30.13F
NEW CASTLE     FAIR      80  68  66 SW5       30.10F
BEAVER COUNTY  NOT AVBL
BUTLER*        CLOUDY    79  66  65 SE6       30.14F
PITTSBURGH INT CLOUDY    80  66  62 SE5       30.11F
PITTSBURGH     TSTM      67  58  72 CALM      30.14S
INDIANA*       SUNNY     81  70  69 CALM      30.15F
LATROBE        MOSUNNY   81  72  74 CALM      30.12F
WASHINGTON CO* PTSUNNY   79  64  61 SW5       30.13S
$$

PAZ004>006-010>012-017>019-024>028-033>037-041-042-045-046-049>053-291900-
CENTRAL PENNSYLVANIA

CITY           SKY/WX    TMP DP  RH WIND       PRES   REMARKS
BRADFORD       CLOUDY    79  61  53 SW5       30.14S
DUBOIS         CLOUDY    79  65  62 SW8       30.13S
CLEARFIELD     CLOUDY    82  64  54 SW7       30.11F
JOHNSTOWN      LGT RAIN  75  58  55 W5        30.15F
ALTOONA        PTSUNNY   81  59  47 SE10      30.13F
STATE COLLEGE  SUNNY     82  61  47 SW12      30.11S
WILLIAMSPORT   MOSUNNY   89  59  36 SE8       30.05F
SELINSGROVE    PTSUNNY   86  54  33 SW10      30.09F
FT INDIANTOWN  CLOUDY    85  60  42 S8        30.10F
CAPITAL CITY   CLOUDY    84  62  47 SW5       30.09F
HARRISBURG     CLOUDY    86  62  44 S9        30.08F
YORK           MOSUNNY   84  60  44 S6        30.10F
$$

PAZ038>040-043-044-047-048-054-055-060>062-067>071-291900-
EASTERN PENNSYLVANIA

CITY           SKY/WX    TMP DP  RH WIND       PRES   REMARKS
SCRANTON       PTSUNNY   87  63  44 SW9G23    30.07F
MOUNT POCONO   MOSUNNY   80  62  54 S8        30.15F
ALLENTOWN      MOSUNNY   88  63  43 S13       30.09F
QUAKERTOWN*    CLOUDY    86  63  45 S7        30.12F
READING        PTSUNNY   87  61  41 S8        30.08F
LANCASTER      MOSUNNY   85  55  35 SW13      30.10F
COATESVILLE    CLEAR     82  59  44 VRB5G13   30.14F
POTTSTOWN      CLOUDY    85  61  44 SW10      30.12F
BLUE BELL      MOSUNNY   82  61  47 S6        30.11F
DOYLESTOWN     SUNNY     82  56  40 S7        30.10F
WILLOW GROVE   NOT AVBL
NORTH PHILA    SUNNY     87  60  40 SW7       30.11F
PHILADELPHIA   PTSUNNY   86  49  27 S9        30.10F
$$




USA.gov is the U.S. government's official web portal to all federal, state and local government web resources and services.